Regional Weather Roundup
Issued by NWS Cleveland, OH

Home | Current Version | Previous Version | Graphics & Text | Print | Product List | Glossary On
Versions: 1 2 3 4 5 6 7 8 9 10 11 12 13 14 15 16 17 18 19 20 21 22 23 24 25 26 27 28 29 30 31 32 33 34 35 36 37 38 39 40 41 42 43 44 45 46 47 48 49 50
000
ASUS41 KCLE 252210
RWRCLE
OHIO REGIONAL WEATHER ROUNDUP
NATIONAL WEATHER SERVICE CLEVELAND, OH
500 PM EST TUE NOV 25 2014

NOTE: "FAIR" INDICATES FEW OR NO CLOUDS BELOW 12,000 FEET WITH NO
SIGNIFICANT WEATHER AND/OR OBSTRUCTIONS TO VISIBILITY.

OHZ001>008-015>018-024>027-034-035-043-044-252300-
   NORTHWEST OHIO

CITY           SKY/WX    TMP DP  RH WIND       PRES   REMARKS
DEFIANCE       NOT AVBL
FINDLAY        CLOUDY    31  23  72 W14       30.13R WCI  21
TOLEDO EXPRESS CLOUDY    30  21  69 W10       30.13S WCI  21
TOLEDO EXEC    CLOUDY    32  20  61 W12       30.14R WCI  23
LIMA           CLOUDY    30  23  75 W16       30.13R WCI  19
$$

OHZ009>014-019>023-028>033-038-089-252300-
   NORTHEAST OHIO

CITY           SKY/WX    TMP DP  RH WIND       PRES   REMARKS
CLE-HOPKINS    CLOUDY    34  26  72 W15       30.14R WCI  24
CLE-LAKEFRONT  CLOUDY    35  27  72 W22       30.12R WCI  23
CUY CO. ARPT   CLOUDY    37  30  75 W16       30.11R
LORAIN-ELYRIA  CLOUDY    32  27  81 NW15      30.12R WCI  22
ASHTABULA      CLOUDY    35  25  66 W12       30.10R WCI  27
AKRON-CANTON   CLOUDY    37  25  61 W8        30.09R
WOOSTER        CLOUDY    35  28  75 NW7       30.10R WCI  29
MANSFIELD      CLOUDY    33  27  78 W9        30.09S WCI  25
YOUNGSTOWN     CLOUDY    36  25  64 W12       30.09R
$$

OHZ042-051>053-060>062-070>072-077>081-252300-
  SOUTHWEST OHIO

CITY           SKY/WX    TMP DP  RH WIND       PRES   REMARKS
CINC-COVINGTON MOCLDY    40  27  59 W6        30.12R
CINC-LUNKEN    PTCLDY    41  28  60 W7        30.14R
HAMILTON       CLOUDY    39  30  70 N8        30.15R
DAYTON         CLOUDY    35  28  75 NW8       30.14R WCI  29
WRIGHT-PAT AFB CLOUDY    36  27  69 W12       30.13R
DAYTON GENERAL CLOUDY    37  29  72 NW9       30.12R
WILMINGTON     PTCLDY    38  27  64 NW8       30.11R
$$

OHZ036-037-039>041-045>050-054>059-063>069-073>076-082>088-252300-
  CENTRAL AND SOUTHEAST OHIO

CITY           SKY/WX    TMP DP  RH WIND       PRES   REMARKS
COLUMBUS       MOCLDY    39  26  59 W9        30.11R
OSU AIRPORT    CLOUDY    38  28  67 W7        30.11R
BOLTON FIELD   CLOUDY    37  28  70 W5        30.12R
RICKENBACK AFB PTCLDY    38  27  65 NW7       30.11S
NEWARK         PTCLDY    37  26  64 NW6       30.11R
MARION         CLOUDY    32  26  78 NW12      30.12R WCI  23
LANCASTER      PTCLDY    38  26  62 NW6       30.12R
ZANESVILLE     CLEAR     38  26  62 NW10      30.11R
NEW PHILLY     CLOUDY    39  26  59 W7        30.12R
$$



USA.gov is the U.S. government's official web portal to all federal, state and local government web resources and services.